Weather Roundup
Issued by NWS

Home | Current Version | Previous Version | Text Only | Print | Product List | Glossary On
Versions: 1 2 3 4 5 6 7 8 9 10 11 12 13 14 15 16 17 18 19 20 21 22 23 24 25 26 27 28 29 30 31 32 33 34 35 36 37 38 39 40 41 42 43 44 45 46 47 48 49 50
000
NZUS93 KARX 221659
HRRWXR

CURRENT HOURLY OBSERVATIONS ACROSS
MUCH OF THE UPPER MISSISSIPPI VALLEY
NATIONAL WEATHER SERVICE LA CROSSE WI
1100 AM CST SAT NOV 22 2014


...SOUTHEAST MINNESOTA...


CITY           SKY/WX    TMP DP  RH WIND       PRES   REMARKS
ROCHESTER      FOG       35  34  96 S9        29.76F VSB 1   WCI  28
ROCHESTER/MAYO CLOUDY    36  35  96 S13       29.76F WCI  28
WINONA         CLOUDY    39  37  93 CALM      29.80F
AUSTIN         FOG       36  34  93 S9        29.76F VSB 1/4 WCI  29
ALBERT LEA     FOG       36  36 100 S12G18    29.74F VSB 1   WCI  27
DODGE CENTER   CLOUDY    36  36 100 SW15      29.74F FOG     WCI  26
PRESTON        FOG       34  34  99 S13       29.78F VSB<1/4 WCI  25
OWATONNA       CLOUDY    36  34  93 S9        29.75F FOG     WCI  29
FARIBAULT      CLOUDY    36  34  93 S8        29.76F FOG     WCI  29
$$

...ELSEWHERE IN MINNESOTA...


CITY           SKY/WX    TMP DP  RH WIND       PRES   REMARKS
MINNEAPOLIS    CLOUDY    34  33  96 S7        29.75F FOG     WCI  28
INTNL FALLS    CLOUDY    35  29  78 W3        29.60F
DULUTH         PTSUNNY   32  28  85 SW6       29.66F FOG     WCI  26
RED WING         N/A     37  34  87 SW5       29.76F FOG     WCI  34
REDWOOD FALLS  CLOUDY    34  33  96 S14       29.70F FOG     WCI  25
MANKATO        CLOUDY    36  32  87 SW12      29.75S WCI  27
WORTHINGTON    CLOUDY    34  34 100 SW16      29.72F VSB 1/4 WCI  23
FAIRMONT       CLOUDY    36  32  87 SW14      29.74F WCI  27
$$

...SOUTHWEST WISCONSIN...


CITY           SKY/WX    TMP DP  RH WIND       PRES   REMARKS
LA CROSSE      CLOUDY    37  35  92 S8        29.81F FOG     WCI  31
PRAIRIE DU CHI FOG       37  36  94 CALM      29.86S VSB 1
BOSCOBEL       CLOUDY    38  36  92 VRB3      29.86F FOG
LONE ROCK      CLOUDY    41  36  82 CALM      29.85F HAZE
PLATTEVILLE    CLOUDY    37  37  97 S14       29.87F VSB<1/4 WCI  29
FORT MC COY    CLOUDY    36  35  94 S8        29.83F FOG     WCI  30
VIROQUA        CLOUDY   N/A N/A N/A SW8       29.82F VSB<1/4
WIS DELLS      CLOUDY    37  36  94 SW9       29.84F FOG     WCI  30
$$

...ELSEWHERE IN WISCONSIN...


CITY           SKY/WX    TMP DP  RH WIND       PRES   REMARKS
MILWAUKEE      FOG       40  37  89 SW10      29.91F VSB 1   WCI  33
MADISON        FOG       37  36  96 S9        29.87F VSB 1/2 WCI  30
GREEN BAY      CLOUDY    36  33  89 SW12      29.83F FOG     WCI  28
EAU CLAIRE     NOT AVBL
BLACK RVR FLS  FOG       37  37 100 SW5       29.81S VSB 3/4 WCI  33
MEDFORD        CLOUDY    32  32  99 SW8       29.77F FOG     WCI  25
WAUSAU         CLOUDY    34  33  96 SW5       29.77F FOG     WCI  30
WIS RAPIDS     CLOUDY    34  32  92 S9        29.81F WCI  27
MARSHFIELD     FOG       34  33  96 SW9       29.78F VSB 1/4 WCI  27
RICE LAKE      CLOUDY    35  32  90 S10       29.76F FOG     WCI  27
$$

...NORTHEAST IOWA...


CITY           SKY/WX    TMP DP  RH WIND       PRES   REMARKS
DECORAH        FOG       36  36 100 S8        29.82F VSB 1/2 WCI  29
MASON CITY     FOG       36  36 100 S12       29.79F VSB 1/4 WCI  28
CHARLES CITY   FOG       36  36 100 SW10      29.82F VSB<1/4 WCI  28
OELWEIN        FOG       36  36 100 S8        29.85S VSB<1/4 WCI  29
$$

...ELSEWHERE IN IOWA...


CITY           SKY/WX    TMP DP  RH WIND       PRES   REMARKS
DES MOINES     CLOUDY    47  41  80 SW17      29.86F
IOWA CITY      CLOUDY    47  46  97 SW8       29.90F FOG
FORT DODGE     CLOUDY    39  37  93 SW12      29.80S WCI  32
$$

...NORTHERN ILLINOIS...


CITY           SKY/WX    TMP DP  RH WIND       PRES   REMARKS
CHICAGO-OHARE  CLOUDY    41  38  89 S13       29.96F FOG
CHICAGO-MIDWAY CLOUDY    43  38  82 S12       29.98F
MOLINE         CLOUDY    50  46  86 SW15      29.91F
ROCKFORD       FOG       42  40  92 S9        29.93F VSB 3/4
PEORIA         CLOUDY    50  42  74 S13       29.98F
$$

NOTE: "FAIR" INDICATES FEW OR NO CLOUDS BELOW 12,000 FEET WITH NO
SIGNIFICANT WEATHER AND/OR OBSTRUCTIONS TO VISIBILITY. WIND
SPEEDS ARE IN MILES-PER-HOUR.



USA.gov is the U.S. government's official web portal to all federal, state and local government web resources and services.